This is the latest recevied weather packets stored in our database for station/object K4PAD. If no packets are shown the sender has not sent any weather packets the latest 10 day(s).
| Time | Temp. | Humidity | Pressure | Rain* | Wind** | Luminosity | Snow |
|---|---|---|---|---|---|---|---|
| 1777916411 | 26.11° C | 31% | 1018.9 hPa | 0 mm | - | 1074 W/m² | - |
| 1777916108 | 26.11° C | 32% | 1019 hPa | 0 mm | - | 1066 W/m² | - |
| 1777915805 | 26.11° C | 34% | 1019 hPa | 0 mm | - | 1065 W/m² | - |
| 1777915501 | 26.67° C | 32% | 1019 hPa | 0 mm | - | 1068 W/m² | - |
| 1777915197 | 26.67° C | 32% | 1019 hPa | 0 mm | - | 1067 W/m² | - |
| 1777914895 | 26.67° C | 32% | 1019.2 hPa | 0 mm | - | 1068 W/m² | - |
| 1777914591 | 26.67° C | 31% | 1019 hPa | 0 mm | - | 1065 W/m² | - |
| 1777914287 | 26.11° C | 32% | 1019.4 hPa | 0 mm | - | 1061 W/m² | - |
| 1777913985 | 26.67° C | 34% | 1019.4 hPa | 0 mm | - | 1057 W/m² | - |
| 1777913681 | 25.56° C | 33% | 1019.3 hPa | 0 mm | - | 1051 W/m² | - |
| 1777913378 | 26.11° C | 32% | 1019.6 hPa | 0 mm | - | 1050 W/m² | - |
| 1777913074 | 25.56° C | 32% | 1019.7 hPa | 0 mm | - | 1044 W/m² | - |
| 1777912771 | 25° C | 35% | 1019.8 hPa | 0 mm | - | 1038 W/m² | - |
| 1777912466 | 26.11° C | 34% | 1019.6 hPa | 0 mm | - | 1029 W/m² | - |
| 1777912163 | 25.56° C | 33% | 1019.6 hPa | 0 mm | - | 1024 W/m² | - |
| 1777911859 | 25.56° C | 35% | 1019.8 hPa | 0 mm | - | 1016 W/m² | - |
| 1777911556 | 25.56° C | 37% | 1019.7 hPa | 0 mm | - | 1002 W/m² | - |
| 1777911252 | 25.56° C | 37% | 1019.7 hPa | 0 mm | - | 994 W/m² | - |
| 1777910949 | 25° C | 37% | 1019.9 hPa | 0 mm | - | 984 W/m² | - |
| 1777910647 | 25.56° C | 37% | 1019.7 hPa | 0 mm | - | 974 W/m² | - |
| 1777910343 | 25° C | 36% | 1019.5 hPa | 0 mm | - | 969 W/m² | - |
| 1777910040 | 25° C | 36% | 1019.8 hPa | 0 mm | - | 960 W/m² | - |
| 1777909737 | 25° C | 36% | 1019.9 hPa | 0 mm | - | 944 W/m² | - |
| 1777909434 | 25° C | 35% | 1020 hPa | 0 mm | - | 938 W/m² | - |
| 1777909133 | 25° C | 36% | 1019.9 hPa | 0 mm | - | 932 W/m² | - |
* Rain latest hour (hover to see other rain measurements)
** Current wind speed in m/s (hover to see current wind gust speed)